Retour au catalogue

SENTINEL 1B

ActifScienceSSO
NORAD 41456·PAYLOAD·🇪🇺 EU

Lancé Apr 25, 2016 depuis Guiana Space Centre

Loading…

Prochains Passages (prochaines 24 heures)

TLE

FraisSource: Space-Track

Époque: Sep 14, 2026, 14:54 UTC

1 41456U 16025A   26257.62110969  .00000273  00000-0  27559-4 0  9994
2 41456  98.0870 321.8018 0012928 194.9507 165.1335 14.99459513557184

Suivez SENTINEL 1B en temps réel avec AllMySat

Download on the App Store